Tracking 35331 objects as of 16-Sep-2026
HD Live streaming from Space Station
objects crossing your sky now

OVZON-3

Track OVZON-3 now!
OVZON-3 is classified as:


NORAD ID: 58698
Int'l Code: 2024-003A
Launch date: January 3, 2024
Source: Sweden (SWED)
Launch site: AIR FORCE EASTERN TEST RANGE (AFETR)
Your satellite tracking list
Your tracking list is empty




NASA's NSSDC Master Catalog

Two Line Element Set (TLE):
1 58698U 24003A   26258.94125478  .00000045  00000-0  00000-0 0  9997
2 58698   0.0125 176.2081 0000369 266.0109 311.2421  1.00274167  8351
Source of the keplerian elements: AFSPC